Location: Castellar de la Frontera
(36.3200°N, 5.4500°W)
Time: 15:59:52
(UTC+02:00)

ISS - Pass Details

Date: 22 July 2018
Orbit: 402 x 408 km, 51.6° (Epoch: 23 July)

Event Time Altitude Azimuth Distance (km) Brightness Sun altitude
Rises 21:56:05 0° 226° (SW) 2,300 0.2 -4.5°
Reaches altitude 10° 21:58:09 10° 225° (SW) 1,445 -0.8 -4.9°
Maximum altitude 22:01:23 82° 137° (SE) 410 -3.9 -5.4°
Drops below altitude 10° 22:04:39 10° 50° (NE) 1,457 -1.2 -6.0°
Sets 22:06:44 0° 50° (NE) 2,321 -0.2 -6.4°
